Location: Oroua River
(40.4333°S, 175.4333°E)
Time: 14:37:40
(UTC+00:00)

Sich 1 Rocket - Pass Details

Date: 03 February 2023
Orbit: 615 x 651 km, 82.5° (Epoch: 22 March)

Event Time Altitude Azimuth Distance (km) Brightness Sun altitude
Rises 15:50:09 0° 187° (S) 2,940 7.5 -16.9°
Reaches altitude 10° 15:52:25 10° 185° (S) 2,021 6.7 -16.5°
Maximum altitude 15:56:54 78° 98° (E) 645 3.7 -15.9°
Drops below altitude 10° 16:01:18 10° 11° (N) 1,983 5.9 -15.2°
Enters shadow 16:02:53 - 10° (N) 2,627 6.5 -15.0°
